RH
19 18 13 11 54 68 66 65 69 86 87 87 87 82 71 66 64 63 70 63 47 95 72 88 90 95 99
20 19 11 22 42 80 98 84 95 89 95 87 89 98 87 78 70 72 85 95 82 97 98 98 94 81 71
20 19 10 8 27 75 96 99 86 83 82 93 92 89 90 84 83 81 79 85 92 90 90 92 91 84 76
13 16 10 17 20 58 90 81 94 90 86 95 95 95 94 90 92 91 88 82 89 96 92 84 73 86 82
12 12 12 55 62 81 91 98 99 83 86 91 85 91 91 95 94 84 94 99 94 99 96 97 96 89 85
12 10 24 66 82 96 100 100 98 77 99 90 92 87 89 83 89 92 98 99 91 96 98 100 99 98 94
21 50 71 87 81 93 99 99 90 95 99 92 98 91 100 91 96 97 98 99 99 100 100 100 100 100 99
80 94 99 100 95 100 97 100 98 99 100 94 88 92 98 99 88 100 99 100 100 100 100 100 100 99 100
100 100 100 100 100 100 95 99 85 99 100 100 85 96 100 100 96 98 99 98 98 100 98 98 100 99 99
99 100 97 99 99 96 95 96 98 95 90 90 85 90 100 81 88 99 100 99 98 99 98 96 92 99 94
100 100 100 100 100 98 98 100 99 100 91 98 99 98 95 95 98 99 100 100 100 100 100 100 94 93 86
85 99 99 91 100 99 99 93 91 96 99 100 99 100 100 99 100 98 100 99 100 97 99 99 99 96 100
41 68 97 81 99 99 99 99 99 99 99 100 100 99 99 100 99 100 99 99 100 99 100 99 100 100 99
34 38 66 55 97 100 98 98 99 99 99 99 99 95 98 98 100 99 99 100 100 100 100 99 99 99 99
41 31 33 38 48 65 89 99 99 80 99 99 99 99 97 99 99 99 100 100 99 100 99 98 98 97 90
47 33 30 32 32 31 33 52 60 22 74 44 17 64 98 97 98 98 81 40 25 28 24 13 17 11 10
52 36 30 29 27 24 20 16 11 9 9 9 8 8 8 29 66 17 9 9 9 10 11 12 12 14 15
Wind_Speed
34 32 31 29 26 26 27 30 34 34 38 40 43 44 48 50 52 52 50 51 52 49 51 50 46 45 46
36 36 38 29 27 30 29 29 30 33 34 38 40 39 43 45 49 51 52 48 49 53 52 51 49 47 46
41 39 37 33 29 29 29 31 36 31 36 35 36 36 36 38 42 45 50 51 49 51 53 55 56 55 52
43 41 38 32 31 28 30 28 33 33 33 33 35 34 32 36 38 39 43 45 45 44 46 49 45 44 49
42 41 37 31 29 23 26 28 29 28 29 27 29 34 37 39 33 39 43 43 47 45 46 45 43 41 44
37 36 32 29 26 26 25 30 30 27 28 29 30 31 30 32 31 25 37 42 48 48 45 39 43 43 46
34 30 27 25 24 25 34 27 32 32 30 27 29 27 22 24 26 30 32 31 37 26 37 49 40 41 44
31 28 29 24 28 27 30 30 30 30 28 30 26 24 24 22 24 20 15 21 22 27 35 37 44 50 49
26 27 26 30 32 33 33 35 33 31 31 32 25 20 25 24 27 18 18 19 19 21 22 30 31 28 26
26 25 28 28 29 31 33 34 39 36 30 32 29 24 26 26 30 21 23 19 20 20 19 19 19 21 24
29 28 29 24 24 21 22 21 26 33 31 26 26 27 26 25 22 23 24 23 23 23 24 23 24 25 19
33 28 26 23 19 20 20 19 22 23 25 28 27 24 27 23 22 22 20 21 25 22 22 23 21 21 21
33 29 25 22 19 18 14 10 11 9 13 13 21 20 21 24 27 21 22 20 24 23 23 22 21 22 21
30 27 25 24 24 21 21 20 16 16 13 15 13 15 17 21 18 20 19 18 18 15 15 16 17 20 20
28 27 25 25 24 23 26 25 19 17 17 17 17 15 12 14 15 16 15 13 12 14 15 17 17 15 14
27 26 25 24 23 22 21 19 19 18 17 16 14 14 17 17 19 16 15 14 14 16 16 16 15 16 16
26 24 23 23 22 21 20 19 18 17 17 16 15 14 14 15 18 16 16 16 15 16 17 17 17 18 20
Wind_Direction
288 289 288 282 261 258 263 265 266 265 264 265 264 259 257 258 258 257 256 255 254 251 250 250 252 249 248
281 289 292 288 269 255 264 265 271 275 273 274 268 264 260 257 257 257 256 256 255 248 249 249 255 257 259
279 283 289 286 275 261 253 263 271 273 272 273 269 268 264 261 257 256 255 255 255 254 251 254 256 256 259
276 282 284 276 271 264 261 261 262 262 275 271 272 267 268 263 257 256 255 257 258 259 257 256 257 250 252
275 278 279 278 276 266 262 268 266 267 267 271 275 263 258 259 264 260 252 255 256 254 258 254 252 251 252
276 279 277 278 263 258 266 269 275 270 266 268 281 283 269 262 258 271 251 251 257 258 255 248 258 253 251
285 286 278 274 252 243 261 269 272 269 277 274 269 272 275 262 266 269 261 262 255 246 250 255 255 253 253
288 288 282 264 253 262 255 260 261 262 266 276 277 264 259 264 269 270 256 266 243 247 254 258 252 254 253
282 286 283 269 252 254 254 261 255 262 269 266 273 271 261 264 272 258 256 264 268 247 257 258 261 260 267
270 276 278 272 264 262 262 260 256 255 257 262 261 262 269 257 263 250 257 259 271 252 263 266 256 265 265
261 270 278 279 274 273 262 273 256 251 257 258 252 255 254 263 266 265 261 263 269 267 271 256 256 262 275
260 266 273 272 266 273 274 265 262 256 250 254 248 251 258 253 260 256 258 259 254 254 266 246 263 265 262
257 261 266 266 247 250 249 248 248 238 230 245 242 246 247 250 251 254 255 259 261 267 259 254 247 252 230
257 256 257 256 250 247 252 258 270 261 244 235 244 256 248 247 240 257 256 246 245 234 230 232 230 232 245
254 252 250 250 251 250 243 251 255 264 237 241 235 234 226 222 223 226 222 226 225 233 235 240 235 230 236
251 249 247 246 246 246 248 248 248 248 240 236 230 228 228 232 230 233 239 238 236 236 237 241 240 246 250
249 248 245 243 241 239 238 236 235 235 234 235 233 231 231 231 233 234 236 239 241 244 247 248 249 253 256